FENGYUN 1C DEB

Satellite information

Favourite Embed

Satellite Type and Status

DEBRISIN ORBIT

Key statistics

Satellite FENGYUN 1C DEB at a glance.

Uptime

9496

Days in orbit

Revolutions

≈ 14.5

Per day

Orbit

SSO

Sun Synchronous Orbit

Inclination

98.8

Latest

Satellite identification and parameters

Extended collection of information and parameters for FENGYUN 1C DEB.

Object identification

Identified? True

Debris? True

Object name: FENGYUN 1C DEB

International designator: 1999-025CCL

Object number (NORAD): 31678

Object ID (CCSDS): 31678

Country: PEOPLES REPUBLIC OF CHINA (PRC)

Current information (Y/N): Y

RCS size: SMALL

Orbital parameters

Period: 99.359 minutes

Inclination: 98.7881 deg

SMA: 7106.104 km

Apoapsis: 920.601 km

Periapsis: 535.337 km

RAAN: 220.234 deg

Eccentricy: 0.0271079

Argument of periapsis: 349.3627 deg

Mean anomaly: 10.19 deg

Mean motion: 14.49290417 rev/day

Mean motion (dot): 0.00006436 rev/day2

B* drag term: 0.0010625 1/REarth

Two-line elements (TLE)

Creation date: May 2, 2025, 2:33 a.m.

Reference frame: TEME

Reference center: EARTH

Epoch: May 1, 2025, 11:57 a.m. UTC

TLE line 0: 0 FENGYUN 1C DEB

TLE line 1: 1 31678U 99025CCL 25121.49817338 .00006436 00000-0 10625-2 0 9999

TLE line 2: 2 31678 98.7881 220.2340 0271079 349.3627 10.1900 14.49290417935730

Live tracking on map

Real-time ground track for satellite FENGYUN 1C DEB.

In-orbit conjunctions

A list of the most updated potential collisions computed for object FENGYUN 1C DEB.

Target Orbit TCA Probability of collision Miss distance Type
SL-8 DEB * LEO 2024-11-08 09:12:50 0.0002141707 919.0 (m) DEBRIS
SAUDISAT 1B LEO 2024-09-28 16:26:03 0.0005333251 272.0 (m) PAYLOAD
SCOUT A R/B SSO 2024-06-02 10:56:11 0.0002182179 167.0 (m) ROCKET BODY

Associated space launch

Chinese polar orbiting meteorological satellite

FENGYUN 1C DEB was lifted into orbit during the mission ‘Long March 4B | Feng Yun 1C’, on board a Long March 4B space rocket.

The launch took place on May 10, 1999, 1:33 a.m. from Launch Complex 7.

For more information about the launch, click the button.

Launch to space Long March 4B | Feng Yun 1C
Long March 4B | Feng Yun 1C

Agency: N/A

Status: Launch Successful

Launch date: May 10, 1999, 1:33 a.m. UTC

Rocket: Long March 4B

Launch pad: Launch Complex 7

Location: Taiyuan Satellite Launch Center, People's Republic of China

...

Latest news about this satellite

There are no fresh news available about this satellite. Check back as we update our databases every day.


Newsletter sign-up

Weekly statistics, charts and insights to help you stay on top of the space industry.